Prescott, AZ

11:42 AM MST on July 15, 2019 (GMT -0700)
Love

Weather History for KPRC - May, 2019

Change the Weather History Date:

Friday, May 24, 2019

  Actual Average Record
Temperature  
Mean Temperature 51 °F 64 °F  
Max Temperature 69 °F 79 °F 92 °F (1984)
Min Temperature 33 °F 49 °F 35 °F (1965)
Degree Days  
Heating Degree Days 14    
Month to date heating degree days 223  
Since 1 July heating degree days 4272  
Cooling Degree Days 0    
Month to date cooling degree days 0  
Year to date cooling degree days 1  
Growing Degree Days 1 (Base 50)    
Moisture  
Dew Point 28 °F    
Average Humidity 48    
Maximum Humidity 89    
Minimum Humidity 14    
Precipitation  
Precipitation 0.00 in 0.02 in 0.37 in (1965)
Month to date precipitation 1.13 0.36  
Year to date precipitation 6.65 4.44  
Sea Level Pressure  
Sea Level Pressure 29.91 in    
Wind  
Wind Speed 5 mph ()    
Max Wind Speed 16 mph    
Max Gust Speed 21 mph    
Visibility 10.0 miles    
Events      
T = Trace of Precipitation, MM = Missing Value Source: Averaged Metar Reports

Daily Weather History Graph

Daily Weather History Graph

Search for Another Location

Airport or City:

Astronomy

May. 24, 2019 Rise Set
Actual Time 5:21 AM MST 7:32 PM MST
Civil Twilight 4:52 AM MST 8:00 PM MST
Nautical Twilight 4:17 AM MST 8:35 PM MST
Astronomical Twilight 3:40 AM MST 9:13 PM MST
Moon 12:00 AM MST (5/24) 10:24 AM MST (5/24)
Length of Visible Light 15h 08m
Length of Day
14h 10m
Waning Gibbous, 68% of the Moon is Illuminated
May 24
Waning Gibbous
May 26
Last Quarter
Jun 3
New
Jun 9
First Quarter
Jun 17
Full

Hourly Weather History & Observations

Time (MST) Temp. Windchill Dew Point Humidity Pressure Visibility Wind Dir Wind Speed Gust Speed Precip Events Conditions
12:53 AM 37.9 °F 35.5 °F 33.1 °F 83% 29.99 in 10.0 mi South 3.5 mph - N/A   Clear
1:53 AM 37.9 °F 32.7 °F 33.1 °F 83% 29.97 in 10.0 mi SSW 6.9 mph - N/A   Clear
2:53 AM 36.0 °F 31.1 °F 32.0 °F 86% 29.98 in 10.0 mi SSW 5.8 mph - N/A   Clear
3:53 AM 35.1 °F 29.3 °F 32.0 °F 89% 29.97 in 10.0 mi South 6.9 mph - N/A   Clear
4:53 AM 34.0 °F 28.0 °F 30.9 °F 89% 29.96 in 10.0 mi SSW 6.9 mph - N/A   Clear
5:53 AM 36.0 °F 30.3 °F 32.0 °F 86% 29.98 in 10.0 mi SSW 6.9 mph - N/A   Clear
6:53 AM 42.1 °F - 36.0 °F 79% 29.97 in 10.0 mi Calm Calm - N/A   Clear
7:53 AM 46.9 °F - 37.9 °F 71% 29.97 in 10.0 mi North 3.5 mph - N/A   Clear
8:53 AM 51.1 °F - 36.0 °F 56% 29.98 in 10.0 mi NNW 3.5 mph - N/A   Clear
9:53 AM 55.9 °F - 34.0 °F 44% 29.96 in 10.0 mi Variable 4.6 mph - N/A   Partly Cloudy
10:53 AM 59.0 °F - 30.9 °F 35% 29.95 in 10.0 mi ESE 4.6 mph - N/A   Partly Cloudy
11:53 AM 63.0 °F - 30.0 °F 29% 29.92 in 10.0 mi Variable 6.9 mph - N/A   Partly Cloudy
12:53 PM 64.0 °F - 28.0 °F 26% 29.91 in 10.0 mi Variable 5.8 mph - N/A   Partly Cloudy
1:53 PM 66.0 °F - 24.1 °F 20% 29.88 in 10.0 mi Variable 3.5 mph - N/A   Partly Cloudy
2:53 PM 68.0 °F - 18.0 °F 15% 29.87 in 10.0 mi WSW 11.5 mph - N/A   Partly Cloudy
3:53 PM 68.0 °F - 17.1 °F 14% 29.86 in 10.0 mi SSW 10.4 mph 18.4 mph N/A   Scattered Clouds
4:53 PM 66.9 °F - 19.0 °F 16% 29.85 in 10.0 mi South 10.4 mph - N/A   Clear
5:53 PM 66.0 °F - 19.9 °F 17% 29.85 in 10.0 mi SW 9.2 mph - N/A   Clear
6:53 PM 64.0 °F - 23.0 °F 21% 29.84 in 10.0 mi SW 11.5 mph - N/A   Partly Cloudy
7:53 PM 57.9 °F - 27.0 °F 31% 29.85 in 10.0 mi SW 6.9 mph - N/A   Clear
8:53 PM 55.0 °F - 27.0 °F 34% 29.86 in 10.0 mi SSW 9.2 mph - N/A   Clear
9:53 PM 51.1 °F - 28.0 °F 41% 29.86 in 10.0 mi South 8.1 mph - N/A   Clear
10:53 PM 50.0 °F - 26.1 °F 39% 29.85 in 10.0 mi SSW 9.2 mph - N/A   Clear
11:53 PM 48.0 °F - 26.1 °F 42% 29.83 in 10.0 mi South 8.1 mph - N/A   Clear